Flag for Germany Weather past 2 weeks in Görlitz, Saxony, Germany

Now
33 °F

Light snow. Low clouds.


Feels Like: 28 °F
Forecast: 32 / 40 °F
Wind: 6 mph from West

Location: Goerlitz

Current Time: Apr 2, 2015 at 10:11:10 AM

Latest Report: Apr 2, 2015 at 10:00 AM


Visibility: 1 mi

Pressure: 29.66 "Hg

Humidity: 99%

Dew point: 33 °F

Location of GörlitzLocation

Historic Weather in Görlitz — Graph

°F

Görlitz temperature yesterday

Maximum temperature yesterday: 42 °F (at 3:00 PM)
Minimum temperature yesterday: 35 °F (at 9:00 AM)
Average temperature yesterday: 38 °F

Past Weeks' High & Low Weather Summary

 TemperatureHumidityPressure
High63 °F (Mar 25, 4:00 PM)100% (Mar 27, 3:00 AM)30.39 "Hg (Mar 27, 3:00 AM)
Low26 °F (Mar 20, 6:00 AM)34% (Mar 20, 4:00 PM)29.15 "Hg (Mar 31, 11:00 AM)
Average42 °F72%29.91 "Hg
* Reported Mar 18 8:00 AM — Apr 2 9:00 AM, Görlitz, Weather by CustomWeather, © 2015

Note: Actual official high and low records may vary slightly from our data, if they occured in-between our weather recording intervals... More about our weather records

Advertising

Görlitz weather history for previous 24 hours

 ConditionsComfort  
Time TempWeatherWind HumidityBarometerVisibility
9:00 AM
Thu, Apr 2
36 °FRain. Overcast.7 mph94%29.64 "Hg12 mi
8:00 AM33 °FLight snow. Low clouds.7 mph100%29.68 "Hg4 mi
7:00 AM33 °FLight snow. Low clouds.8 mph99%29.70 "Hg1 mi
6:00 AM32 °FLight snow. Low clouds.7 mph99%29.75 "Hg2 mi
5:00 AM33 °FLight snow. Overcast.8 mph94%29.80 "Hg6 mi
4:00 AM35 °FOvercast.7 mph83%29.83 "Hg22 mi
3:00 AM34 °FOvercast.8 mph87%29.87 "Hg31 mi
2:00 AM34 °FPassing clouds.8 mph87%29.88 "Hg34 mi
1:00 AM35 °FOvercast.10 mph85%29.89 "Hg22 mi
12:00 AM35 °FPassing clouds.10 mph85%29.89 "Hg25 mi
11:00 PM
Wed, Apr 1
35 °FOvercast.9 mph86%29.88 "Hg25 mi
10:00 PM35 °FOvercast.9 mph84%29.87 "Hg28 mi
9:00 PM35 °FPassing clouds.9 mph83%29.84 "Hg28 mi
8:00 PM37 °FOvercast.9 mph80%29.84 "Hg16 mi
7:00 PM36 °FOvercast.9 mph88%29.84 "Hg25 mi
6:00 PM36 °FSleet. Overcast.10 mph85%29.84 "Hg5 mi
5:00 PM40 °FOvercast.13 mph73%29.81 "Hg19 mi
4:00 PM40 °FThunderstorms. Overcast.7 mph81%29.79 "Hg25 mi
3:00 PM42 °FOvercast.12 mph73%29.76 "Hg28 mi
2:00 PM39 °FPartly sunny.10 mph89%29.77 "Hg19 mi
1:00 PM39 °FSprinkles. Overcast.8 mph89%29.75 "Hg10 mi
12:00 PM37 °FLight mixture of precip. Overcast.10 mph84%29.74 "Hg10 mi
11:00 AM38 °FSprinkles. Overcast.13 mph78%29.73 "Hg11 mi
10:00 AM36 °FLight mixture of precip. Low clouds.12 mph88%29.71 "Hg9 mi
Weather by CustomWeather, © 2015

See weather overviewHow to use our weather pages